sat.trackr.live / text

‹ back to catalog

STARLINK-31527

NORAD 59018 · 2024-036W

PAYLOAD ACTIVE UNKNOWN

§ Identity

Operator
Country
US
Launch date
2024-02-23
Launch site
AFWTR
Launch vehicle
Mass (kg)
RCS (m²)

Purposes: comms

External: N2YO · Heavens-Above · Gunter

§ Orbital elements

Epoch: 2026-09-20T08:29:03.804864Z

Period
93.85 min
Inclination
53.1584°
Eccentricity
0.0001386
Mean motion
15.34387899 rev/d
Perigee alt
461.8 km
Apogee alt
463.7 km
Semi-major
6,840.9 km
B*
3.5236e-5
RAAN
252.0625°
Arg perigee
90.4661°
Mean anomaly
269.6501°
Rev number
14,515

§ Raw data

STARLINK-315271 59018U 24036W   26263.35351626  .00000814  00000+0  35236-4 0  99932 59018  53.1584 252.0625 0001386  90.4661 269.6501 15.34387899145159

JSON: /api/v1/satellites/59018 · /tle

For live sub-satellite position, see the globe view (requires WebGL).

§ Visibility from observer

Set your observer location to see the next 7 days of passes ≥ 10°. The values pass through the URL so the page stays shareable.

No JS? Fill the form by hand. The geolocation button needs JavaScript.